Vorticity
5 5 5 5 5 5 4 4 4 4 3 4 5 5 2 3 5 3 -1 3 3 4 6 -1 20 15 15 17 8 13 8 16 16 2 3 2 7 8 8 7 6 5 5
5 5 5 6 6 5 6 6 6 5 5 4 5 7 6 4 6 6 1 -0 0 0 -1 5 -2 -6 23 2 10 19 -1 10 7 29 19 -4 2 9 13 11 7 7 6
5 5 5 5 6 7 6 6 7 6 7 7 6 5 5 4 3 5 7 8 5 2 8 -4 -1 5 6 -1 7 -3 5 2 11 -1 15 37 34 41 -7 30 -3 10 8
5 5 5 5 5 6 6 6 7 7 7 7 8 8 6 6 6 7 7 7 6 7 6 8 10 3 -2 4 8 2 -5 4 2 8 2 -10 5 16 4 12 20 16 14
6 6 5 6 6 5 5 6 6 6 6 6 6 6 7 8 6 6 7 5 4 4 5 4 5 7 10 4 -0 -0 0 -2 5 3 -1 1 -1 -7 11 -4 6 8 28
5 4 5 5 5 4 4 4 5 6 6 6 6 6 7 7 8 7 6 5 3 3 4 5 6 5 6 8 9 8 5 -2 3 2 6 4 10 7 -7 1 10 -0 2
6 6 6 5 4 5 4 4 6 5 5 6 7 7 6 6 6 6 6 5 5 4 3 4 5 5 5 5 5 5 7 7 9 9 -1 4 -7 3 9 7 -9 6 8
6 6 8 5 5 5 5 7 9 8 7 7 7 6 7 7 6 6 5 6 6 5 6 5 3 4 5 5 5 6 6 4 3 4 6 6 4 0 -2 3 4 8 4
6 5 7 8 -1 -3 -2 -1 -2 5 3 3 2 5 8 8 8 8 7 8 7 7 7 8 7 5 4 4 5 5 6 6 5 4 4 6 6 5 4 4 0 2 1
7 10 8 -1 8 8 8 7 9 9 9 8 8 7 5 5 7 9 7 8 7 6 6 9 9 9 8 6 5 5 5 5 6 5 5 4 5 7 6 5 5 5 5
10 10 7 8 7 8 8 7 5 5 5 5 5 6 3 4 4 4 4 2 1 5 6 6 6 8 9 10 7 6 7 7 6 4 4 5 4 4 4 4 3 3 3
5 5 6 6 7 8 7 7 7 6 5 4 3 4 6 6 4 3 7 7 7 4 4 4 7 7 7 6 9 10 8 7 8 9 7 6 6 5 5 4 5 4 2
5 5 5 5 5 4 4 3 4 4 7 8 10 11 8 5 5 6 4 -0 3 8 12 10 7 4 5 6 6 8 9 9 9 9 10 10 9 8 8 8 7 7 6
8 7 7 7 7 7 9 9 8 8 8 5 6 6 7 7 10 9 5 4 -0 -1 7 6 8 9 9 10 10 8 7 7 8 9 8 9 9 9 10 9 10 9 6
8 9 9 10 8 7 6 7 7 8 10 10 5 4 9 12 8 3 7 12 8 1 -2 4 8 5 7 6 3 4 5 8 7 6 7 9 10 10 9 9 9 8 6
11 12 11 11 13 12 12 12 11 10 10 10 12 15 18 14 -1 6 17 12 5 1 2 -1 8 9 4 1 7 7 4 4 5 5 5 5 6 6 7 6 6 8 8
20 25 17 13 18 20 18 16 14 14 11 9 8 10 11 11 12 18 10 2 11 16 12 10 11 13 9 2 5 2 -1 11 8 9 10 5 4 5 5 5 6 4 1
11 9 5 7 7 5 4 12 11 11 13 14 14 14 9 20 23 22 23 24 18 11 13 21 14 10 12 10 7 9 4 11 5 4 10 10 8 7 6 4 4 5 3
1 7 5 5 5 13 8 3 10 2 11 13 16 8 10 9 7 15 19 16 28 24 25 17 20 22 26 28 33 28 20 12 9 7 12 10 12 11 9 8 6 4 6
9 15 17 16 14 12 15 19 13 7 7 6 8 6 12 5 5 7 1 6 1 7 3 8 7 5 4 12 7 12 13 17 20 21 22 15 12 10 10 9 7 8 10
12 9 14 9 14 6 9 10 10 6 7 12 8 4 7 1 5 6 7 9 6 4 4 8 7 5 9 11 7 7 3 2 10 8 8 7 8 12 17 19 17 15 17
15 17 14 12 13 16 6 8 12 7 11 7 6 3 6 5 2 3 1 3 -1 6 5 1 3 -3 7 1 9 7 5 4 1 9 7 4 5 4 7 9 6 3 7
15 11 13 11 9 9 16 13 17 13 17 18 12 13 13 15 19 19 19 16 16 8 10 13 5 3 -4 -1 7 7 12 6 4 9 6 3 6 3 6 7 2 8 10
15 14 14 14 15 14 14 16 16 14 14 14 14 14 15 16 17 15 16 15 16 17 14 14 12 15 16 18 14 13 17 13 19 19 7 5 7 6 9 3 4 8 2
11 10 10 10 7 6 7 6 5 5 5 6 9 9 10 11 11 11 15 14 12 12 15 13 14 14 15 17 18 17 17 17 17 21 25 27 25 21 19 19 18 16 11
5 2 10 10 9 11 13 13 15 17 18 20 21 19 17 15 16 19 17 18 15 13 14 14 13 19 13 12 13 12 8 13 16 15 14 15 17 16 15 15 19 20 21
Height
5781 5784 5786 5788 5790 5793 5795 5797 5800 5802 5805 5808 5810 5812 5814 5820 5821 5823 5826 5827 5829 5830 5831 5833 5835 5837 5838 5840 5842 5844 5846 5847 5849 5851 5855 5858 5860 5861 5864 5867 5869 5871 5873
5774 5776 5778 5780 5783 5785 5788 5790 5793 5796 5799 5801 5804 5806 5810 5813 5815 5817 5819 5821 5822 5825 5827 5828 5830 5832 5833 5834 5836 5838 5839 5841 5843 5844 5846 5851 5854 5856 5858 5861 5863 5866 5868
5766 5769 5770 5772 5775 5777 5780 5783 5785 5788 5791 5794 5797 5800 5802 5805 5807 5809 5812 5815 5817 5819 5821 5822 5824 5827 5830 5830 5831 5832 5833 5835 5837 5840 5841 5843 5847 5850 5852 5854 5857 5859 5862
5756 5759 5762 5765 5767 5770 5772 5775 5777 5780 5783 5785 5788 5791 5794 5797 5799 5801 5804 5806 5809 5811 5814 5816 5818 5821 5823 5826 5826 5827 5829 5831 5833 5835 5836 5837 5840 5843 5846 5846 5850 5852 5856
5745 5749 5752 5755 5758 5760 5763 5766 5768 5771 5774 5776 5779 5781 5784 5787 5790 5793 5795 5798 5800 5803 5806 5808 5811 5814 5816 5818 5820 5821 5821 5826 5829 5831 5832 5833 5836 5839 5839 5842 5845 5847 5847
5734 5737 5741 5744 5746 5749 5752 5755 5759 5762 5765 5767 5769 5772 5775 5777 5781 5783 5786 5789 5792 5795 5798 5801 5803 5805 5809 5810 5813 5815 5813 5816 5821 5823 5825 5828 5830 5833 5836 5837 5840 5842 5844
5723 5726 5729 5732 5735 5738 5741 5744 5747 5750 5754 5756 5759 5762 5764 5767 5770 5773 5776 5779 5782 5785 5787 5790 5793 5796 5798 5800 5804 5806 5806 5808 5812 5815 5817 5819 5822 5824 5828 5830 5833 5835 5837
5710 5713 5716 5720 5723 5726 5730 5732 5736 5739 5742 5745 5748 5751 5754 5757 5759 5763 5765 5768 5771 5773 5776 5779 5782 5784 5786 5790 5793 5796 5798 5800 5802 5805 5807 5810 5813 5816 5818 5821 5825 5828 5830
5697 5700 5704 5707 5711 5714 5717 5720 5723 5726 5730 5733 5736 5739 5742 5745 5748 5750 5753 5756 5759 5761 5764 5767 5770 5773 5775 5778 5781 5784 5787 5789 5791 5794 5796 5800 5802 5805 5808 5812 5814 5818 5820
5685 5688 5691 5694 5697 5700 5703 5707 5710 5713 5716 5719 5722 5726 5729 5732 5735 5738 5740 5743 5746 5748 5750 5754 5756 5760 5762 5764 5767 5770 5773 5777 5779 5782 5785 5788 5791 5794 5797 5800 5804 5808 5811
5671 5674 5678 5681 5683 5687 5690 5693 5696 5699 5701 5704 5707 5711 5714 5717 5720 5723 5726 5729 5732 5734 5737 5740 5743 5746 5749 5751 5753 5756 5760 5763 5767 5769 5772 5775 5778 5781 5784 5787 5790 5794 5798
5656 5660 5663 5666 5668 5671 5674 5677 5680 5683 5686 5688 5691 5695 5699 5702 5706 5709 5711 5714 5717 5719 5722 5725 5728 5731 5735 5738 5740 5742 5745 5749 5752 5756 5758 5761 5765 5768 5771 5773 5776 5780 5784
5640 5643 5646 5649 5651 5654 5657 5660 5663 5666 5669 5672 5675 5679 5682 5686 5689 5693 5696 5698 5700 5703 5705 5708 5712 5715 5719 5721 5725 5728 5730 5733 5736 5740 5743 5747 5750 5753 5756 5759 5762 5766 5770
5624 5626 5628 5631 5633 5636 5639 5642 5644 5648 5652 5655 5659 5662 5665 5668 5671 5674 5678 5682 5684 5687 5689 5691 5694 5698 5702 5705 5707 5710 5714 5717 5721 5723 5727 5731 5734 5737 5740 5744 5747 5751 5754
5607 5609 5611 5614 5616 5618 5621 5625 5628 5630 5633 5636 5640 5643 5646 5650 5653 5656 5659 5661 5665 5669 5672 5675 5677 5679 5682 5686 5689 5693 5697 5700 5703 5707 5711 5714 5718 5720 5724 5728 5732 5735 5739
5589 5591 5593 5596 5599 5601 5603 5606 5609 5612 5615 5618 5621 5624 5627 5631 5634 5637 5640 5643 5645 5648 5652 5657 5660 5663 5665 5666 5670 5674 5677 5681 5685 5688 5692 5696 5700 5704 5707 5710 5714 5718 5721
5571 5574 5576 5578 5581 5583 5586 5588 5591 5594 5597 5599 5602 5605 5608 5611 5615 5617 5620 5623 5625 5628 5630 5634 5638 5642 5645 5647 5651 5655 5658 5661 5664 5668 5672 5676 5680 5684 5689 5693 5696 5700 5703
5558 5558 5560 5562 5564 5567 5569 5572 5575 5577 5581 5582 5584 5587 5590 5593 5595 5598 5600 5602 5604 5608 5611 5613 5616 5619 5622 5626 5630 5634 5637 5641 5645 5647 5651 5655 5658 5662 5667 5671 5675 5678 5682
5541 5542 5544 5547 5549 5550 5553 5557 5560 5562 5564 5566 5568 5569 5572 5575 5578 5580 5583 5584 5586 5588 5592 5594 5595 5598 5601 5604 5608 5611 5614 5619 5623 5626 5630 5633 5636 5640 5644 5648 5652 5656 5660
5526 5528 5530 5532 5533 5535 5538 5541 5544 5545 5547 5550 5551 5553 5555 5558 5561 5564 5566 5567 5570 5571 5573 5576 5578 5579 5582 5585 5589 5590 5595 5597 5600 5603 5605 5610 5614 5617 5621 5625 5629 5632 5635
5513 5515 5517 5519 5520 5521 5524 5526 5529 5531 5533 5534 5536 5537 5541 5541 5544 5546 5549 5550 5552 5555 5556 5557 5560 5562 5563 5566 5568 5571 5575 5577 5581 5582 5585 5587 5592 5594 5597 5600 5604 5608 5612
5499 5502 5503 5504 5505 5506 5508 5510 5514 5515 5516 5517 5519 5520 5524 5525 5526 5529 5530 5532 5534 5536 5538 5539 5541 5544 5544 5546 5547 5551 5553 5556 5561 5559 5562 5567 5569 5572 5574 5577 5580 5583 5587
5485 5486 5487 5488 5489 5491 5493 5494 5497 5499 5499 5500 5501 5503 5504 5506 5507 5508 5510 5512 5514 5515 5517 5517 5521 5522 5525 5525 5527 5527 5529 5533 5536 5537 5538 5544 5544 5550 5550 5554 5557 5560 5563
5472 5472 5473 5474 5475 5475 5476 5478 5480 5482 5481 5482 5483 5484 5485 5485 5486 5488 5490 5491 5492 5493 5493 5495 5498 5499 5501 5501 5502 5503 5505 5507 5509 5512 5512 5520 5519 5524 5524 5529 5532 5535 5537
5460 5460 5460 5460 5461 5461 5462 5463 5464 5466 5466 5465 5466 5465 5466 5467 5466 5468 5469 5471 5471 5472 5469 5472 5474 5476 5477 5476 5477 5478 5481 5481 5483 5486 5486 5489 5491 5495 5499 5503 5504 5505 5506
5449 5449 5448 5448 5447 5447 5447 5448 5448 5449 5449 5449 5448 5448 5449 5449 5448 5449 5450 5450 5453 5451 5451 5452 5454 5455 5454 5455 5455 5455 5458 5461 5461 5466 5464 5465 5465 5467 5473 5477 5479 5477 5479